DW8847 Weather Reports


Display with metric or nautical units.
time (UTC)temp
F
wind
direction
speed
MPH
gust
MPH
rain 1hr
in
rain 24hr
in
rain mn
in
humidity
%
barometer
mb
20260509230511 55 83 0.0 1.0 0.00 0.00 0.00 84 1015.2
20260509230010 56 83 0.0 1.0 0.00 0.00 0.00 84 1015.2
20260509225510 56 83 0.0 0.0 0.00 0.00 0.00 84 1015.3
20260509225009 56 83 0.0 2.0 0.00 0.00 0.00 84 1015.3
20260509224511 56 83 0.0 2.0 0.00 0.00 0.00 84 1015.3
20260509224009 56 83 0.0 0.0 0.00 0.00 0.00 84 1015.3
20260509223509 56 83 0.0 1.0 0.00 0.00 0.00 84 1015.2
20260509223007 56 83 0.0 1.0 0.00 0.00 0.00 83 1015.3
20260509222506 57 83 0.0 0.0 0.00 0.00 0.00 82 1015.2
20260509222003 57 83 0.0 0.0 0.00 0.00 0.00 82 1015.3
20260509221508 57 83 0.0 0.0 0.00 0.00 0.00 82 1015.3
20260509221002 57 83 0.0 0.0 0.00 0.00 0.00 82 1015.2
20260509220559 57 83 0.0 0.0 0.00 0.00 0.00 82 1015.2
20260509220107 57 83 0.0 0.0 0.00 0.00 0.00 82 1015.2
20260509215558 57 83 0.0 0.0 0.00 0.00 0.00 81 1015.2
20260509215058 58 83 0.0 2.0 0.00 0.00 0.00 81 1015.2
20260509214558 58 83 0.0 1.0 0.00 0.00 0.00 81 1015.2
20260509214057 58 83 0.0 0.0 0.00 0.00 0.00 81 1015.2
20260509213557 58 83 0.0 0.0 0.00 0.00 0.00 81 1015.1
20260509213058 58 83 0.0 0.0 0.00 0.00 0.00 80 1015.2
20260509212558 59 83 0.0 0.0 0.00 0.00 0.00 81 1015.2
20260509212059 59 83 0.0 0.0 0.00 0.00 0.00 79 1015.1
20260509211556 59 83 0.0 1.0 0.00 0.00 0.00 79 1015.1
20260509211057 59 83 0.0 1.0 0.00 0.00 0.00 78 1015.0
20260509210557 59 83 0.0 0.0 0.00 0.00 0.00 76 1015.0
20260509210100 59 83 0.0 0.0 0.00 0.00 0.00 77 1015.0
20260509205556 59 83 0.0 0.0 0.00 0.00 0.00 77 1015.0
20260509205057 59 83 0.0 0.0 0.00 0.00 0.00 78 1015.0
20260509204601 60 83 0.0 0.0 0.00 0.00 0.00 79 1015.0
20260509204056 60 83 0.0 2.0 0.00 0.00 0.00 78 1015.0
20260509203555 61 83 0.0 2.0 0.00 0.00 0.00 75 1015.0
20260509203058 61 244 0.0 0.0 0.00 0.00 0.00 76 1014.9
20260509202557 61 244 0.0 0.0 0.00 0.00 0.00 76 1014.8
20260509202058 61 244 0.0 0.0 0.00 0.00 0.00 74 1014.8
20260509201555 61 244 0.0 0.0 0.00 0.00 0.00 75 1014.8
20260509201055 61 244 0.0 0.0 0.00 0.00 0.00 76 1014.8
20260509200555 61 244 0.0 0.0 0.00 0.00 0.00 74 1014.7
20260509195557 62 244 0.0 2.0 0.00 0.00 0.00 75 1014.7
20260509195056 62 244 0.0 2.0 0.00 0.00 0.00 75 1014.7
20260509194555 62 244 1.0 2.0 0.00 0.00 0.00 73 1014.8
20260509194054 62 244 0.0 0.0 0.00 0.00 0.00 72 1014.7
20260509193559 62 244 0.0 0.0 0.00 0.00 0.00 72 1014.7
20260509193106 63 244 0.0 0.0 0.00 0.00 0.00 71 1014.6
20260509192554 63 244 0.0 0.0 0.00 0.00 0.00 69 1014.6
20260509192057 63 244 0.0 0.0 0.00 0.00 0.00 71 1014.6
20260509191612 63 244 0.0 0.0 0.00 0.00 0.00 71 1014.6
20260509191053 64 244 0.0 0.0 0.00 0.00 0.00 70 1014.5
20260509190553 64 244 0.0 0.0 0.00 0.00 0.00 70 1014.5
20260509190110 64 244 0.0 0.0 0.00 0.00 0.00 68 1014.5
20260509185553 64 244 0.0 0.0 0.00 0.00 0.00 67 1014.5
20260509185053 65 244 0.0 0.0 0.00 0.00 0.00 67 1014.4
20260509184553 65 244 0.0 0.0 0.00 0.00 0.00 68 1014.5
20260509184053 65 244 0.0 0.0 0.00 0.00 0.00 67 1014.5
20260509183554 65 244 0.0 0.0 0.00 0.00 0.00 68 1014.6
20260509183053 66 244 0.0 0.0 0.00 0.00 0.00 66 1014.6
20260509182552 66 244 0.0 0.0 0.00 0.00 0.00 68 1014.4
20260509182052 66 244 0.0 0.0 0.00 0.00 0.00 66 1014.4
20260509181552 67 244 0.0 0.0 0.00 0.00 0.00 67 1014.5
20260509181052 67 244 0.0 0.0 0.00 0.00 0.00 67 1014.5
20260509180551 67 244 0.0 1.0 0.00 0.00 0.00 63 1014.4
20260509180052 67 244 0.0 2.0 0.00 0.00 0.00 64 1014.4
20260509175551 67 244 0.0 2.0 0.00 0.00 0.00 65 1014.4
20260509175051 67 244 0.0 0.0 0.00 0.00 0.00 66 1014.4
20260509174551 68 244 0.0 2.0 0.00 0.00 0.00 64 1014.3
20260509174053 68 244 0.0 2.0 0.00 0.00 0.00 63 1014.3
20260509173551 68 244 0.0 2.0 0.00 0.00 0.00 64 1014.3
20260509173058 69 244 0.0 3.0 0.00 0.00 0.00 62 1014.3
20260509172554 69 266 0.0 3.0 0.00 0.00 0.00 62 1014.4
20260509172050 70 286 0.0 2.0 0.00 0.00 0.00 61 1014.3
20260509171605 70 196 0.0 2.0 0.00 0.00 0.00 60 1014.2
20260509171049 71 192 0.0 0.0 0.00 0.00 0.00 55 1014.1
20260509170551 71 192 0.0 2.0 0.00 0.00 0.00 56 1014.0
20260509170050 71 192 0.0 2.0 0.00 0.00 0.00 55 1014.0
20260509165549 71 192 0.0 2.0 0.00 0.00 0.00 57 1014.0
20260509165049 72 192 0.0 2.0 0.00 0.00 0.00 54 1014.0
20260509164553 72 180 0.0 2.0 0.00 0.00 0.00 52 1013.9
20260509164051 72 180 1.0 4.0 0.00 0.00 0.00 52 1013.8
20260509163553 72 182 0.0 3.0 0.00 0.00 0.00 55 1013.9
20260509163056 72 202 1.0 3.0 0.00 0.00 0.00 53 1013.8
20260509162553 72 173 0.0 2.0 0.00 0.00 0.00 53 1013.7
20260509162048 72 196 0.0 4.0 0.00 0.00 0.00 52 1013.7
20260509161548 72 196 0.0 5.0 0.00 0.00 0.00 52 1013.8
20260509161047 73 182 1.0 6.0 0.00 0.00 0.00 51 1013.8
20260509160548 73 277 1.0 6.0 0.00 0.00 0.00 52 1013.8
20260509160048 73 189 1.0 5.0 0.00 0.00 0.00 54 1013.9
20260509155547 73 198 0.0 5.0 0.00 0.00 0.00 54 1013.9
20260509155046 73 167 1.0 5.0 0.00 0.00 0.00 54 1014.0
20260509154546 73 182 2.0 5.0 0.00 0.00 0.00 56 1014.0
20260509154047 73 171 1.0 4.0 0.00 0.00 0.00 55 1014.0
20260509153546 74 148 1.0 6.0 0.00 0.00 0.00 54 1014.1
20260509153047 74 159 2.0 6.0 0.00 0.00 0.00 54 1014.1
20260509152546 74 159 2.0 7.0 0.00 0.00 0.00 54 1014.1
20260509152046 74 202 2.0 10.0 0.00 0.00 0.00 55 1014.1
20260509151547 74 203 5.0 10.0 0.00 0.00 0.00 54 1014.0
20260509151046 74 198 4.0 9.0 0.00 0.00 0.00 57 1014.1
20260509150545 74 219 3.0 8.0 0.00 0.00 0.00 56 1014.0
20260509150045 75 210 1.0 5.0 0.00 0.00 0.00 57 1014.0
20260509145545 75 254 1.0 8.0 0.00 0.00 0.00 56 1014.0
20260509145044 75 202 3.0 8.0 0.00 0.00 0.00 56 1014.0
20260509144548 75 195 4.0 6.0 0.00 0.00 0.00 56 1014.0
20260509144045 75 9 0.0 5.0 0.00 0.00 0.00 57 1014.0
20260509143544 75 172 2.0 7.0 0.00 0.00 0.00 56 1014.1
20260509143043 75 161 2.0 7.0 0.00 0.00 0.00 55 1014.2
20260509142544 76 207 2.0 7.0 0.00 0.00 0.00 53 1014.1
20260509142042 77 200 2.0 6.0 0.00 0.00 0.00 56 1014.1
20260509141547 76 164 0.0 5.0 0.00 0.00 0.00 52 1014.2
20260509141041 76 219 1.0 4.0 0.00 0.00 0.00 54 1014.2
20260509140540 76 44 0.0 3.0 0.00 0.00 0.00 53 1014.2
20260509140041 76 138 0.0 7.0 0.00 0.00 0.00 58 1014.2
20260509135540 75 59 2.0 7.0 0.00 0.00 0.00 56 1014.2
20260509135040 76 142 1.0 7.0 0.00 0.00 0.00 56 1014.2
20260509134551 76 158 2.0 8.0 0.00 0.00 0.00 57 1014.3
20260509134043 77 192 2.0 8.0 0.00 0.00 0.00 53 1014.2
20260509133539 77 199 0.0 2.0 0.00 0.00 0.00 51 1014.3
20260509133041 76 201 0.0 2.0 0.00 0.00 0.00 45 1014.3
20260509132541 75 205 0.0 7.0 0.00 0.00 0.00 45 1014.4
20260509132040 76 205 2.0 10.0 0.00 0.00 0.00 45 1014.4
20260509131556 77 228 6.0 10.0 0.00 0.00 0.00 48 1014.4
20260509131037 78 157 0.0 2.0 0.00 0.00 0.00 46 1014.4
20260509130539 77 74 0.0 3.0 0.00 0.00 0.00 51 1014.5
20260509130048 76 67 1.0 4.0 0.00 0.00 0.00 47 1014.5
20260509125536 75 226 0.0 5.0 0.00 0.00 0.00 51 1014.5
20260509125034 76 198 2.0 8.0 0.00 0.00 0.00 55 1014.5
20260509124542 76 196 2.0 8.0 0.00 0.00 0.00 48 1014.6
20260509124036 76 82 1.0 5.0 0.00 0.00 0.00 48 1014.5
20260509123534 76 67 0.0 5.0 0.00 0.00 0.00 49 1014.6
20260509123037 77 54 0.0 5.0 0.00 0.00 0.00 49 1014.6
20260509122533 76 102 0.0 5.0 0.00 0.00 0.00 49 1014.6
20260509122031 75 234 1.0 8.0 0.00 0.00 0.00 49 1014.6
20260509121532 75 244 4.0 8.0 0.00 0.00 0.00 49 1014.7
20260509121031 75 246 2.0 5.0 0.00 0.00 0.00 49 1014.7
20260509120533 76 120 0.0 3.0 0.00 0.00 0.00 48 1014.9
20260509120032 76 141 0.0 2.0 0.00 0.00 0.00 51 1014.9
20260509115527 76 141 0.0 2.0 0.00 0.00 0.00 51 1015.0
20260509115027 75 141 0.0 2.0 0.00 0.00 0.00 53 1015.0
20260509114526 73 194 0.0 6.0 0.00 0.00 0.00 52 1015.2
20260509114025 73 195 2.0 7.0 0.00 0.00 0.00 52 1015.2
20260509113528 73 254 0.0 5.0 0.00 0.00 0.00 53 1015.3
20260509113024 73 250 1.0 6.0 0.00 0.00 0.00 57 1015.3
20260509112523 73 236 2.0 5.0 0.00 0.00 0.00 58 1015.3
20260509112022 73 240 0.0 5.0 0.00 0.00 0.00 59 1015.4
20260509111522 74 259 1.0 5.0 0.00 0.00 0.00 59 1015.5
20260509111021 74 209 0.0 6.0 0.00 0.00 0.00 60 1015.5
20260509110519 73 234 2.0 6.0 0.00 0.00 0.00 60 1015.6
20260509110024 73 236 1.0 4.0 0.00 0.00 0.00 60 1015.7
20260509105519 73 245 0.0 7.0 0.00 0.00 0.00 59 1015.7
20260509105022 73 248 1.0 7.0 0.00 0.00 0.00 62 1015.8
20260509104519 73 202 0.0 7.0 0.00 0.00 0.00 60 1015.8
20260509104017 72 251 2.0 7.0 0.00 0.00 0.00 59 1015.8
20260509103517 72 198 2.0 6.0 0.00 0.00 0.00 63 1015.9
20260509103017 72 196 1.0 4.0 0.00 0.00 0.00 59 1016.0
20260509102515 72 187 0.0 5.0 0.00 0.00 0.00 57 1016.0
20260509102015 72 161 1.0 5.0 0.00 0.00 0.00 59 1016.1
20260509101520 71 251 1.0 6.0 0.00 0.00 0.00 61 1016.1
20260509101013 71 202 3.0 6.0 0.00 0.00 0.00 60 1016.1
20260509100513 71 227 0.0 5.0 0.00 0.00 0.00 61 1016.2
20260509100013 72 234 2.0 5.0 0.00 0.00 0.00 61 1016.2
20260509095513 72 119 0.0 6.0 0.00 0.00 0.00 61 1016.2
20260509095013 72 187 1.0 6.0 0.00 0.00 0.00 60 1016.2
20260509094512 71 196 1.0 6.0 0.00 0.00 0.00 66 1016.3
20260509094011 71 205 0.0 6.0 0.00 0.00 0.00 60 1016.3
20260509093510 71 217 1.0 4.0 0.00 0.00 0.00 58 1016.3
20260509093018 70 194 1.0 4.0 0.00 0.00 0.00 63 1016.2
20260509092510 70 225 0.0 5.0 0.00 0.00 0.00 60 1016.2
20260509092009 70 244 1.0 5.0 0.00 0.00 0.00 60 1016.2
20260509091510 71 219 0.0 4.0 0.00 0.00 0.00 60 1016.3
20260509091009 70 223 0.0 3.0 0.00 0.00 0.00 65 1016.3
20260509090508 70 243 0.0 5.0 0.00 0.00 0.00 66 1016.3
20260509090009 69 243 3.0 5.0 0.00 0.00 0.00 66 1016.3
20260509085507 69 249 1.0 5.0 0.00 0.00 0.00 60 1016.3
20260509085007 70 210 1.0 5.0 0.00 0.00 0.00 63 1016.3
20260509084512 70 248 0.0 4.0 0.00 0.00 0.00 65 1016.3
20260509084004 70 248 1.0 4.0 0.00 0.00 0.00 61 1016.4
20260509083507 70 180 0.0 4.0 0.00 0.00 0.00 59 1016.3
20260509083002 70 62 0.0 4.0 0.00 0.00 0.00 59 1016.3
20260509082502 70 62 0.0 2.0 0.00 0.00 0.00 59 1016.3
20260509082001 70 62 0.0 2.0 0.00 0.00 0.00 60 1016.3
20260509081600 70 62 0.0 2.0 0.00 0.00 0.00 61 1016.4
20260509081059 70 62 0.0 2.0 0.00 0.00 0.00 60 1016.4
20260509080558 70 62 0.0 2.0 0.00 0.00 0.00 56 1016.3
20260509080058 70 62 0.0 2.0 0.00 0.00 0.00 60 1016.3
20260509075555 70 62 0.0 2.0 0.00 0.00 0.00 61 1016.3
20260509075055 70 62 0.0 2.0 0.00 0.00 0.00 61 1016.3
20260509074600 70 62 0.0 2.0 0.00 0.00 0.00 63 1016.4
20260509074052 69 60 0.0 2.0 0.00 0.00 0.00 63 1016.3
20260509073551 68 60 0.0 2.0 0.00 0.00 0.00 64 1016.3
20260509073050 68 60 0.0 3.0 0.00 0.00 0.00 64 1016.3
20260509072550 67 60 0.0 3.0 0.00 0.00 0.00 65 1016.2
20260509072046 67 61 0.0 2.0 0.00 0.00 0.00 67 1016.3
20260509071548 66 61 1.0 4.0 0.00 0.00 0.00 68 1016.3
20260509071046 66 65 1.0 4.0 0.00 0.00 0.00 68 1016.3
20260509070544 66 69 1.0 3.0 0.00 0.00 0.00 69 1016.3
20260509070046 65 69 0.0 2.0 0.00 0.00 0.00 70 1016.3
20260509065541 64 69 1.0 2.0 0.00 0.00 0.00 71 1016.3
20260509065039 64 69 0.0 3.0 0.00 0.00 0.00 71 1016.3
20260509064538 63 69 1.0 3.0 0.00 0.00 0.00 72 1016.2
20260509064038 63 69 2.0 3.0 0.00 0.00 0.00 70 1016.3
20260509063537 63 63 0.0 3.0 0.00 0.00 0.00 71 1016.3
20260509063036 63 63 1.0 2.0 0.00 0.00 0.00 72 1016.3
20260509062535 63 63 0.0 3.0 0.00 0.00 0.00 73 1016.4
20260509062035 62 63 0.0 3.0 0.00 0.00 0.00 73 1016.4
20260509061532 62 67 1.0 2.0 0.00 0.00 0.00 75 1016.4
20260509061031 62 35 0.0 2.0 0.00 0.00 0.00 77 1016.4
20260509060534 61 15 0.0 2.0 0.00 0.00 0.00 78 1016.4
20260509060028 60 15 0.0 3.0 0.00 0.00 0.00 78 1016.3
20260509055529 60 11 1.0 3.0 0.00 0.00 0.00 78 1016.4
20260509055025 59 5 1.0 2.0 0.00 0.00 0.00 79 1016.4
20260509054533 59 5 0.0 2.0 0.00 0.00 0.00 79 1016.3
20260509054022 58 5 0.0 2.0 0.00 0.00 0.00 81 1016.3
20260509053525 58 5 0.0 3.0 0.00 0.00 0.00 81 1016.2
20260509053052 57 9 1.0 3.0 0.00 0.00 0.00 82 1016.2
20260509052520 57 360 0.0 2.0 0.00 0.00 0.00 83 1016.2
20260509052017 56 318 0.0 2.0 0.00 0.00 0.00 83 1016.2
20260509051521 56 318 1.0 2.0 0.00 0.00 0.00 83 1016.3
20260509051016 56 315 0.0 2.0 0.00 0.00 0.00 83 1016.3
20260509050514 56 314 0.0 2.0 0.00 0.00 0.00 83 1016.3
20260509050033 55 314 0.0 2.0 0.00 0.00 0.00 84 1016.3
20260509045512 55 314 0.0 2.0 0.00 0.00 0.00 84 1016.3
20260509045011 54 314 0.0 2.0 0.00 0.00 0.00 84 1016.2
20260509044515 54 314 0.0 2.0 0.00 0.00 0.00 84 1016.2
20260509044008 53 314 0.0 2.0 0.00 0.00 0.00 85 1016.2
20260509043507 53 314 0.0 2.0 0.00 0.00 0.00 85 1016.2
20260509043007 53 314 0.0 2.0 0.00 0.00 0.00 85 1016.2
20260509042505 53 314 0.0 2.0 0.00 0.00 0.00 85 1016.2
20260509042005 52 314 0.0 2.0 0.00 0.00 0.00 86 1016.1
20260509041505 52 314 0.0 1.0 0.00 0.00 0.00 86 1016.0
20260509041003 52 314 0.0 2.0 0.00 0.00 0.00 86 1016.0
20260509040506 52 314 0.0 2.0 0.00 0.00 0.00 86 1016.0
20260509040002 52 314 0.0 2.0 0.00 0.00 0.00 86 1015.9
20260509035502 52 314 0.0 2.0 0.00 0.00 0.00 86 1015.9
20260509035004 52 314 0.0 2.0 0.00 0.00 0.00 86 1015.9
20260509034501 52 314 0.0 2.0 0.00 0.00 0.00 86 1015.9
20260509034001 52 314 0.0 2.0 0.00 0.00 0.00 87 1015.9
20260509033600 52 314 0.0 2.0 0.00 0.00 0.00 86 1015.8
20260509033104 52 314 0.0 2.0 0.00 0.00 0.00 86 1015.8
20260509032604 52 314 0.0 2.0 0.00 0.00 0.00 86 1015.8
20260509032059 52 314 0.0 2.0 0.00 0.00 0.00 86 1015.8
20260509031558 52 314 0.0 2.0 0.00 0.00 0.00 86 1015.8
20260509031058 53 314 0.0 2.0 0.00 0.00 0.00 86 1015.8
20260509030558 53 314 0.0 2.0 0.00 0.00 0.00 86 1015.8
20260509030109 53 314 0.0 1.0 0.00 0.00 0.00 86 1015.8
20260509025556 53 314 0.0 2.0 0.00 0.00 0.00 86 1015.8
20260509025057 53 314 0.0 2.0 0.00 0.00 0.00 86 1015.8
20260509024557 53 314 0.0 2.0 0.00 0.00 0.00 86 1015.8
20260509024057 53 314 0.0 2.0 0.00 0.00 0.00 86 1015.8
20260509023558 53 314 0.0 0.0 0.00 0.00 0.00 87 1015.9
20260509023056 53 314 0.0 1.0 0.00 0.00 0.00 87 1015.9
20260509022556 53 314 0.0 2.0 0.00 0.00 0.00 87 1015.9
20260509022055 53 314 0.0 2.0 0.00 0.00 0.00 87 1015.8
20260509021559 53 314 0.0 2.0 0.00 0.00 0.00 87 1015.9
20260509021054 53 314 0.0 2.0 0.00 0.00 0.00 87 1015.9
20260509020554 53 314 0.0 2.0 0.00 0.00 0.00 87 1015.9
20260509020054 53 314 0.0 1.0 0.00 0.00 0.00 87 1015.8
20260509015554 53 314 0.0 1.0 0.00 0.00 0.00 87 1015.8
20260509015053 53 314 0.0 0.0 0.00 0.00 0.00 87 1015.8
20260509014552 54 314 0.0 0.0 0.00 0.00 0.00 87 1015.8
20260509014051 54 314 0.0 2.0 0.00 0.00 0.00 87 1015.7
20260509013550 54 314 0.0 2.0 0.00 0.00 0.00 87 1015.7
20260509013107 54 314 0.0 2.0 0.00 0.00 0.00 87 1015.7
20260509012550 54 314 0.0 2.0 0.00 0.00 0.00 87 1015.7
20260509012051 55 314 0.0 2.0 0.00 0.00 0.00 87 1015.7
20260509011559 55 314 0.0 2.0 0.00 0.00 0.00 87 1015.7
20260509011048 55 314 0.0 0.0 0.00 0.00 0.00 87 1015.6
20260509010548 55 314 0.0 0.0 0.00 0.00 0.00 87 1015.7
20260509010048 55 314 0.0 0.0 0.00 0.00 0.00 87 1015.7
20260509005548 55 314 0.0 0.0 0.00 0.00 0.00 87 1015.7
20260509005049 55 314 0.0 2.0 0.00 0.00 0.00 87 1015.7
20260509004548 55 314 1.0 2.0 0.00 0.00 0.00 87 1015.6
20260509004047 55 313 1.0 2.0 0.00 0.00 0.00 86 1015.6
20260509003550 55 290 0.0 2.0 0.00 0.00 0.00 86 1015.7
20260509003107 55 290 0.0 2.0 0.00 0.00 0.00 86 1015.6
20260509002546 55 283 0.0 2.0 0.00 0.00 0.00 87 1015.6
20260509002045 55 269 1.0 2.0 0.00 0.00 0.00 87 1015.7
20260509001546 55 240 0.0 2.0 0.00 0.00 0.00 87 1015.7
20260509001048 55 240 0.0 2.0 0.00 0.00 0.00 87 1015.8
20260509000547 56 235 0.0 2.0 0.00 0.00 0.00 87 1015.8
20260509000054 56 235 0.0 2.0 0.00 0.00 0.00 87 1015.8
20260508235543 56 235 0.0 2.0 0.00 0.00 0.00 87 1015.8
20260508235043 56 235 0.0 2.0 0.00 0.00 0.00 86 1015.8
20260508234543 56 235 0.0 1.0 0.00 0.00 0.00 86 1015.8
20260508234042 56 235 0.0 2.0 0.00 0.00 0.00 86 1016.0
20260508233541 56 235 0.0 2.0 0.00 0.00 0.00 86 1015.9
20260508233041 56 235 0.0 2.0 0.00 0.00 0.00 86 1015.9
20260508232540 56 235 0.0 2.0 0.00 0.00 0.00 86 1016.0
20260508232040 56 235 0.0 2.0 0.00 0.00 0.00 87 1016.0
20260508231546 56 235 0.0 2.0 0.00 0.00 0.00 84 1016.0
20260508231039 56 235 0.0 2.0 0.00 0.00 0.00 84 1016.0